Time,TemperatureF,DewpointF,PressureIn,WindDirection,WindDirectionDegrees,WindSpeedMPH,WindSpeedGustMPH,Humidity,HourlyPrecipIn,Conditions,Clouds,dailyrainin,SoftwareType,DateUTC
2013-03-04 00:04:00,55.4,41.7,29.91,SE,144,21.0,22.0,60,0.00,,,0.00,Wunderground v.1.15,2013-03-04 06:04:00,
2013-03-04 00:10:00,55.2,41.5,29.92,SSE,165,20.0,28.0,60,0.00,,,0.00,Wunderground v.1.15,2013-03-04 06:10:00,
2013-03-04 00:16:00,55.1,41.5,29.91,SE,143,19.0,28.0,60,0.00,,,0.00,Wunderground v.1.15,2013-03-04 06:16:00,
2013-03-04 00:22:00,55.2,41.5,29.91,SSE,155,21.0,29.0,60,0.00,,,0.00,Wunderground v.1.15,2013-03-04 06:22:00,
2013-03-04 00:28:00,55.2,41.5,29.91,South,184,22.0,29.0,60,0.00,,,0.00,Wunderground v.1.15,2013-03-04 06:28:00,
2013-03-04 00:34:00,55.1,41.5,29.91,South,183,21.0,21.0,60,0.00,,,0.00,Wunderground v.1.15,2013-03-04 06:34:00,
2013-03-04 00:40:00,55.0,41.8,29.91,SSE,168,20.0,20.0,61,0.00,,,0.00,Wunderground v.1.15,2013-03-04 06:40:00,
2013-03-04 00:46:00,54.9,41.7,29.91,SSE,160,20.0,20.0,61,0.00,,,0.00,Wunderground v.1.15,2013-03-04 06:46:00,
2013-03-04 00:52:00,54.8,41.6,29.91,South,173,19.0,23.0,61,0.00,,,0.00,Wunderground v.1.15,2013-03-04 06:52:00,
2013-03-04 00:58:00,54.7,41.9,29.91,SSW,195,20.0,24.0,62,0.00,,,0.00,Wunderground v.1.15,2013-03-04 06:58:00,
2013-03-04 01:04:00,54.6,41.8,29.91,SE,145,19.0,20.0,62,0.00,,,0.00,Wunderground v.1.15,2013-03-04 07:04:00,
2013-03-04 01:10:00,54.6,41.8,29.90,SE,137,19.0,22.0,62,0.00,,,0.00,Wunderground v.1.15,2013-03-04 07:10:00,
2013-03-04 01:16:00,54.5,41.7,29.91,SSE,148,19.0,22.0,62,0.00,,,0.00,Wunderground v.1.15,2013-03-04 07:16:00,
2013-03-04 01:22:00,54.5,41.7,29.91,SSW,197,19.0,20.0,62,0.00,,,0.00,Wunderground v.1.15,2013-03-04 07:22:00,
2013-03-04 01:28:00,54.3,41.6,29.90,SSE,155,19.0,20.0,62,0.00,,,0.00,Wunderground v.1.15,2013-03-04 07:28:00,
2013-03-04 01:34:00,54.3,41.6,29.90,SSE,168,19.0,21.0,62,0.00,,,0.00,Wunderground v.1.15,2013-03-04 07:34:00,
2013-03-04 01:40:00,54.3,41.6,29.90,SSE,153,19.0,19.0,62,0.00,,,0.00,Wunderground v.1.15,2013-03-04 07:40:00,
2013-03-04 01:46:00,54.0,41.7,29.90,SE,135,18.0,19.0,63,0.00,,,0.00,Wunderground v.1.15,2013-03-04 07:46:00,
2013-03-04 01:52:00,54.0,41.7,29.89,SSE,150,18.0,21.0,63,0.00,,,0.00,Wunderground v.1.15,2013-03-04 07:52:00,
2013-03-04 01:58:00,54.0,41.7,29.89,SSE,168,20.0,25.0,63,0.00,,,0.00,Wunderground v.1.15,2013-03-04 07:58:00,
2013-03-04 02:04:00,53.9,41.6,29.89,SSE,154,20.0,24.0,63,0.00,,,0.00,Wunderground v.1.15,2013-03-04 08:04:00,
2013-03-04 02:10:00,53.7,41.8,29.89,SSE,160,19.0,21.0,64,0.00,,,0.00,Wunderground v.1.15,2013-03-04 08:10:00,
2013-03-04 02:16:00,53.9,42.0,29.88,South,172,21.0,22.0,64,0.00,,,0.00,Wunderground v.1.15,2013-03-04 08:16:00,
2013-03-04 02:22:00,53.6,42.1,29.88,South,170,20.0,22.0,65,0.00,,,0.00,Wunderground v.1.15,2013-03-04 08:22:00,
2013-03-04 02:28:00,53.5,42.0,29.88,SSE,153,19.0,22.0,65,0.00,,,0.00,Wunderground v.1.15,2013-03-04 08:28:00,
2013-03-04 02:34:00,53.4,42.3,29.88,South,181,19.0,24.0,66,0.00,,,0.00,Wunderground v.1.15,2013-03-04 08:34:00,
2013-03-04 02:40:00,53.3,42.6,29.87,South,172,20.0,20.0,67,0.00,,,0.00,Wunderground v.1.15,2013-03-04 08:40:00,
2013-03-04 02:46:00,53.2,42.5,29.88,South,169,19.0,26.0,67,0.00,,,0.00,Wunderground v.1.15,2013-03-04 08:46:00,
2013-03-04 02:52:00,53.1,42.4,29.87,SSE,147,19.0,20.0,67,0.00,,,0.00,Wunderground v.1.15,2013-03-04 08:52:00,
2013-03-04 02:58:00,52.9,42.6,29.87,South,190,18.0,20.0,68,0.00,,,0.00,Wunderground v.1.15,2013-03-04 08:58:00,
2013-03-04 03:04:00,52.8,42.5,29.87,SSE,162,19.0,24.0,68,0.00,,,0.00,Wunderground v.1.15,2013-03-04 09:04:00,
2013-03-04 03:10:00,52.7,42.8,29.87,South,177,19.0,19.0,69,0.00,,,0.00,Wunderground v.1.15,2013-03-04 09:10:00,
2013-03-04 03:16:00,52.6,42.7,29.87,South,176,18.0,22.0,69,0.00,,,0.00,Wunderground v.1.15,2013-03-04 09:16:00,
2013-03-04 03:22:00,52.7,43.2,29.87,South,170,19.0,19.0,70,0.00,,,0.00,Wunderground v.1.15,2013-03-04 09:22:00,
2013-03-04 03:28:00,52.6,43.5,29.87,South,190,19.0,24.0,71,0.00,,,0.00,Wunderground v.1.15,2013-03-04 09:28:00,
2013-03-04 03:34:00,52.6,43.8,29.86,South,183,20.0,21.0,72,0.00,,,0.00,Wunderground v.1.15,2013-03-04 09:34:00,
2013-03-04 03:40:00,52.5,43.7,29.86,South,174,19.0,19.0,72,0.00,,,0.00,Wunderground v.1.15,2013-03-04 09:40:00,
2013-03-04 03:46:00,52.5,44.1,29.86,SSE,149,18.0,23.0,73,0.00,,,0.00,Wunderground v.1.15,2013-03-04 09:46:00,
2013-03-04 03:52:00,52.4,44.4,29.85,South,182,18.0,29.0,74,0.00,,,0.00,Wunderground v.1.15,2013-03-04 09:52:00,
2013-03-04 03:58:00,52.5,44.4,29.85,SSE,160,19.0,29.0,74,0.00,,,0.00,Wunderground v.1.15,2013-03-04 09:58:00,
2013-03-04 04:04:00,52.6,44.9,29.85,SSE,167,19.0,22.0,75,0.00,,,0.00,Wunderground v.1.15,2013-03-04 10:04:00,
2013-03-04 04:10:00,52.5,45.2,29.85,SE,141,19.0,19.0,76,0.00,,,0.00,Wunderground v.1.15,2013-03-04 10:10:00,
2013-03-04 04:16:00,52.5,45.2,29.85,SSE,165,19.0,25.0,76,0.00,,,0.00,Wunderground v.1.15,2013-03-04 10:16:00,
2013-03-04 04:22:00,52.4,45.1,29.84,South,181,19.0,23.0,76,0.00,,,0.00,Wunderground v.1.15,2013-03-04 10:22:00,
2013-03-04 04:28:00,52.4,45.4,29.85,SSE,167,19.0,23.0,77,0.00,,,0.00,Wunderground v.1.15,2013-03-04 10:28:00,
2013-03-04 04:34:00,52.4,45.4,29.85,South,184,20.0,21.0,77,0.00,,,0.00,Wunderground v.1.15,2013-03-04 10:34:00,
2013-03-04 04:40:00,52.3,45.6,29.85,South,178,19.0,21.0,78,0.00,,,0.00,Wunderground v.1.15,2013-03-04 10:40:00,
2013-03-04 04:46:00,52.2,45.5,29.84,SSE,162,18.0,21.0,78,0.00,,,0.00,Wunderground v.1.15,2013-03-04 10:46:00,
2013-03-04 04:52:00,52.3,46.0,29.85,SSE,162,19.0,23.0,79,0.00,,,0.00,Wunderground v.1.15,2013-03-04 10:52:00,
2013-03-04 04:58:00,52.2,45.9,29.85,South,172,19.0,23.0,79,0.00,,,0.00,Wunderground v.1.15,2013-03-04 10:58:00,
2013-03-04 05:04:00,52.2,46.2,29.86,South,173,18.0,24.0,80,0.00,,,0.00,Wunderground v.1.15,2013-03-04 11:04:00,
2013-03-04 05:10:00,52.1,46.4,29.85,SSE,158,18.0,21.0,81,0.00,,,0.00,Wunderground v.1.15,2013-03-04 11:10:00,
2013-03-04 05:16:00,52.2,46.5,29.86,SSE,156,18.0,21.0,81,0.00,,,0.00,Wunderground v.1.15,2013-03-04 11:16:00,
2013-03-04 05:22:00,52.2,46.5,29.85,SW,215,19.0,23.0,81,0.00,,,0.00,Wunderground v.1.15,2013-03-04 11:22:00,
2013-03-04 05:28:00,52.4,47.1,29.85,SE,146,20.0,23.0,82,0.00,,,0.00,Wunderground v.1.15,2013-03-04 11:28:00,
2013-03-04 05:34:00,52.4,47.1,29.86,South,172,21.0,30.0,82,0.00,,,0.00,Wunderground v.1.15,2013-03-04 11:34:00,
2013-03-04 05:40:00,52.4,47.1,29.86,South,183,19.0,19.0,82,0.00,,,0.00,Wunderground v.1.15,2013-03-04 11:40:00,
2013-03-04 05:46:00,52.3,47.0,29.86,SSE,167,17.0,22.0,82,0.00,,,0.00,Wunderground v.1.15,2013-03-04 11:46:00,
2013-03-04 05:52:00,52.3,47.3,29.86,SSW,193,18.0,18.0,83,0.00,,,0.00,Wunderground v.1.15,2013-03-04 11:52:00,
2013-03-04 05:58:00,52.2,47.2,29.86,SSW,211,18.0,20.0,83,0.00,,,0.00,Wunderground v.1.15,2013-03-04 11:58:00,
2013-03-04 06:04:00,52.2,47.2,29.85,SSW,204,19.0,22.0,83,0.00,,,0.00,Wunderground v.1.15,2013-03-04 12:04:00,
2013-03-04 06:10:00,52.3,47.6,29.85,SSW,199,18.0,22.0,84,0.00,,,0.00,Wunderground v.1.15,2013-03-04 12:10:00,
2013-03-04 06:16:00,52.4,47.7,29.85,SW,215,18.0,23.0,84,0.00,,,0.00,Wunderground v.1.15,2013-03-04 12:16:00,
2013-03-04 06:22:00,52.4,47.7,29.86,South,172,18.0,19.0,84,0.00,,,0.00,Wunderground v.1.15,2013-03-04 12:22:00,
2013-03-04 06:28:00,52.4,47.7,29.85,SSW,200,16.0,19.0,84,0.00,,,0.00,Wunderground v.1.15,2013-03-04 12:28:00,
2013-03-04 06:34:00,52.3,47.6,29.86,SSE,163,16.0,19.0,84,0.00,,,0.00,Wunderground v.1.15,2013-03-04 12:34:00,
2013-03-04 06:40:00,52.3,47.6,29.85,SSE,155,15.0,18.0,84,0.00,,,0.00,Wunderground v.1.15,2013-03-04 12:40:00,
2013-03-04 06:46:00,52.4,47.7,29.85,SSW,207,16.0,21.0,84,0.00,,,0.00,Wunderground v.1.15,2013-03-04 12:46:00,
2013-03-04 06:52:00,52.3,47.6,29.85,South,169,15.0,18.0,84,0.00,,,0.00,Wunderground v.1.15,2013-03-04 12:52:00,
2013-03-04 06:58:00,52.3,47.9,29.86,SSW,195,14.0,27.0,85,0.00,,,0.00,Wunderground v.1.15,2013-03-04 12:58:00,
2013-03-04 07:04:00,52.3,47.9,29.86,South,184,14.0,27.0,85,0.00,,,0.00,Wunderground v.1.15,2013-03-04 13:04:00,
2013-03-04 07:10:00,52.3,47.9,29.86,SSW,195,14.0,14.0,85,0.00,,,0.00,Wunderground v.1.15,2013-03-04 13:10:00,
2013-03-04 07:16:00,52.5,48.1,29.86,South,184,14.0,27.0,85,0.00,,,0.00,Wunderground v.1.15,2013-03-04 13:16:00,
2013-03-04 07:22:00,52.7,48.3,29.87,South,188,11.0,27.0,85,0.00,,,0.00,Wunderground v.1.15,2013-03-04 13:22:00,
2013-03-04 07:28:00,52.9,48.2,29.86,South,173,10.0,27.0,84,0.00,,,0.00,Wunderground v.1.15,2013-03-04 13:28:00,
2013-03-04 07:34:00,53.1,48.4,29.86,SSW,205,12.0,14.0,84,0.00,,,0.00,Wunderground v.1.15,2013-03-04 13:34:00,
2013-03-04 07:40:00,53.1,48.4,29.87,SSW,193,13.0,13.0,84,0.00,,,0.00,Wunderground v.1.15,2013-03-04 13:40:00,
2013-03-04 07:46:00,53.2,48.5,29.87,South,188,11.0,27.0,84,0.00,,,0.00,Wunderground v.1.15,2013-03-04 13:46:00,
2013-03-04 07:52:00,53.3,48.6,29.87,South,169,11.0,27.0,84,0.00,,,0.00,Wunderground v.1.15,2013-03-04 13:52:00,
2013-03-04 07:58:00,53.5,48.5,29.87,SSE,165,10.0,27.0,83,0.00,,,0.00,Wunderground v.1.15,2013-03-04 13:58:00,
2013-03-04 08:04:00,53.8,48.4,29.87,SSW,197,9.0,12.0,82,0.00,,,0.00,Wunderground v.1.15,2013-03-04 14:04:00,
2013-03-04 08:10:00,54.1,48.4,29.87,SSW,194,10.0,27.0,81,0.00,,,0.00,Wunderground v.1.15,2013-03-04 14:10:00,
2013-03-04 08:16:00,54.3,48.6,29.87,SSE,158,10.0,27.0,81,0.00,,,0.00,Wunderground v.1.15,2013-03-04 14:16:00,
2013-03-04 08:22:00,54.5,48.5,29.87,SSW,195,11.0,15.0,80,0.00,,,0.00,Wunderground v.1.15,2013-03-04 14:22:00,
2013-03-04 08:28:00,54.9,48.5,29.87,South,169,11.0,27.0,79,0.00,,,0.00,Wunderground v.1.15,2013-03-04 14:28:00,
2013-03-04 08:34:00,55.2,48.8,29.87,South,187,11.0,27.0,79,0.00,,,0.00,Wunderground v.1.15,2013-03-04 14:34:00,
2013-03-04 08:40:00,55.8,49.0,29.88,SE,145,11.0,11.0,78,0.00,,,0.00,Wunderground v.1.15,2013-03-04 14:40:00,
2013-03-04 08:46:00,56.1,49.0,29.87,SSE,167,10.0,27.0,77,0.00,,,0.00,Wunderground v.1.15,2013-03-04 14:46:00,
2013-03-04 08:52:00,56.8,49.0,29.87,South,176,10.0,27.0,75,0.00,,,0.00,Wunderground v.1.15,2013-03-04 14:52:00,
2013-03-04 08:58:00,57.4,49.2,29.87,SSW,198,11.0,27.0,74,0.00,,,0.00,Wunderground v.1.15,2013-03-04 14:58:00,
2013-03-04 09:04:00,58.3,49.3,29.88,SSE,167,11.0,27.0,72,0.00,,,0.00,Wunderground v.1.15,2013-03-04 15:04:00,
2013-03-04 09:10:00,59.5,49.3,29.87,South,174,11.0,11.0,69,0.00,,,0.00,Wunderground v.1.15,2013-03-04 15:10:00,
2013-03-04 09:16:00,60.4,49.0,29.87,South,186,11.0,27.0,66,0.00,,,0.00,Wunderground v.1.15,2013-03-04 15:16:00,
2013-03-04 09:22:00,60.5,49.1,29.87,South,169,12.0,27.0,66,0.00,,,0.00,Wunderground v.1.15,2013-03-04 15:22:00,
2013-03-04 09:28:00,60.8,48.5,29.87,SSE,157,12.0,27.0,64,0.00,,,0.00,Wunderground v.1.15,2013-03-04 15:28:00,
2013-03-04 09:34:00,61.4,49.1,29.88,South,188,12.0,27.0,64,0.00,,,0.00,Wunderground v.1.15,2013-03-04 15:34:00,
2013-03-04 09:40:00,61.9,48.7,29.87,SW,219,12.0,27.0,62,0.00,,,0.00,Wunderground v.1.15,2013-03-04 15:40:00,
2013-03-04 09:46:00,62.6,49.0,29.87,SSE,160,13.0,27.0,61,0.00,,,0.00,Wunderground v.1.15,2013-03-04 15:46:00,
2013-03-04 09:52:00,63.3,48.7,29.87,SSE,167,13.0,27.0,59,0.00,,,0.00,Wunderground v.1.15,2013-03-04 15:52:00,
2013-03-04 09:58:00,63.7,48.6,29.87,South,184,14.0,27.0,58,0.00,,,0.00,Wunderground v.1.15,2013-03-04 15:58:00,
2013-03-04 10:04:00,63.9,48.8,29.88,South,173,13.0,27.0,58,0.00,,,0.00,Wunderground v.1.15,2013-03-04 16:04:00,
2013-03-04 10:10:00,64.4,49.3,29.87,SSE,158,11.0,11.0,58,0.00,,,0.00,Wunderground v.1.15,2013-03-04 16:10:00,
2013-03-04 10:16:00,64.9,48.8,29.87,SSW,198,10.0,27.0,56,0.00,,,0.00,Wunderground v.1.15,2013-03-04 16:16:00,
2013-03-04 10:22:00,65.0,47.9,29.86,South,172,12.0,27.0,54,0.00,,,0.00,Wunderground v.1.15,2013-03-04 16:22:00,
2013-03-04 10:28:00,65.9,48.3,29.86,SSE,157,12.0,27.0,53,0.00,,,0.00,Wunderground v.1.15,2013-03-04 16:28:00,
2013-03-04 10:34:00,67.3,48.0,29.86,South,183,13.0,27.0,50,0.00,,,0.00,Wunderground v.1.15,2013-03-04 16:34:00,
2013-03-04 10:40:00,68.1,48.8,29.86,SW,230,14.0,14.0,50,0.00,,,0.00,Wunderground v.1.15,2013-03-04 16:40:00,
2013-03-04 10:46:00,69.3,48.8,29.85,SSE,155,12.0,27.0,48,0.00,,,0.00,Wunderground v.1.15,2013-03-04 16:46:00,
2013-03-04 10:52:00,70.6,48.2,29.86,SSW,198,10.0,27.0,45,0.00,,,0.00,Wunderground v.1.15,2013-03-04 16:52:00,
2013-03-04 10:58:00,70.8,47.8,29.85,SSW,208,12.0,27.0,44,0.00,,,0.00,Wunderground v.1.15,2013-03-04 16:58:00,
2013-03-04 11:04:00,71.7,47.4,29.85,SSE,159,12.0,27.0,42,0.00,,,0.00,Wunderground v.1.15,2013-03-04 17:04:00,
2013-03-04 11:10:00,72.4,47.4,29.85,SW,225,12.0,27.0,41,0.00,,,0.00,Wunderground v.1.15,2013-03-04 17:10:00,
2013-03-04 11:16:00,72.8,47.1,29.84,South,179,10.0,27.0,40,0.00,,,0.00,Wunderground v.1.15,2013-03-04 17:16:00,
2013-03-04 11:22:00,73.8,47.3,29.84,SSW,208,9.0,27.0,39,0.00,,,0.00,Wunderground v.1.15,2013-03-04 17:22:00,
2013-03-04 11:28:00,74.0,46.8,29.84,SSE,165,10.0,27.0,38,0.00,,,0.00,Wunderground v.1.15,2013-03-04 17:28:00,
2013-03-04 11:34:00,74.8,46.8,29.83,South,172,10.0,27.0,37,0.00,,,0.00,Wunderground v.1.15,2013-03-04 17:34:00,
2013-03-04 11:40:00,74.8,46.1,29.83,SW,214,11.0,11.0,36,0.00,,,0.00,Wunderground v.1.15,2013-03-04 17:40:00,
2013-03-04 11:46:00,75.0,45.5,29.83,SSW,212,11.0,27.0,35,0.00,,,0.00,Wunderground v.1.15,2013-03-04 17:46:00,
2013-03-04 11:52:00,75.8,45.4,29.83,SSW,203,10.0,27.0,34,0.00,,,0.00,Wunderground v.1.15,2013-03-04 17:52:00,
2013-03-04 11:58:00,76.2,45.0,29.83,South,177,10.0,27.0,33,0.00,,,0.00,Wunderground v.1.15,2013-03-04 17:58:00,
2013-03-04 12:04:00,76.9,45.6,29.83,SW,224,8.0,27.0,33,0.00,,,0.00,Wunderground v.1.15,2013-03-04 18:04:00,
2013-03-04 12:10:00,77.4,44.4,29.82,SE,143,8.0,27.0,31,0.00,,,0.00,Wunderground v.1.15,2013-03-04 18:10:00,
2013-03-04 12:16:00,77.2,42.5,29.82,SSW,212,10.0,27.0,29,0.00,,,0.00,Wunderground v.1.15,2013-03-04 18:16:00,
2013-03-04 12:22:00,77.9,43.1,29.82,South,184,9.0,27.0,29,0.00,,,0.00,Wunderground v.1.15,2013-03-04 18:22:00,
2013-03-04 12:28:00,78.1,43.2,29.82,SSE,166,9.0,27.0,29,0.00,,,0.00,Wunderground v.1.15,2013-03-04 18:28:00,
2013-03-04 12:30:00,77.9,43.1,29.81,SSW,210,10.0,10.0,29,0.00,,,0.00,Wunderground v.1.15,2013-03-04 18:30:00,
2013-03-04 12:32:00,77.6,42.8,29.81,SSW,207,9.0,27.0,29,0.00,,,0.00,Wunderground v.1.15,2013-03-04 18:32:00,
2013-03-04 12:36:00,77.9,43.1,29.81,SW,217,10.0,27.0,29,0.00,,,0.00,Wunderground v.1.15,2013-03-04 18:36:00,
2013-03-04 12:38:00,78.0,42.2,29.81,SW,232,10.0,27.0,28,0.00,,,0.00,Wunderground v.1.15,2013-03-04 18:38:00,
2013-03-04 12:44:00,78.7,42.8,29.80,SSW,193,9.0,27.0,28,0.00,,,0.00,Wunderground v.1.15,2013-03-04 18:44:00,
2013-03-04 12:50:00,79.5,43.5,29.80,SSE,163,9.0,9.0,28,0.00,,,0.00,Wunderground v.1.15,2013-03-04 18:50:00,
2013-03-04 12:56:00,80.1,44.0,29.80,SSW,212,8.0,27.0,28,0.00,,,0.00,Wunderground v.1.15,2013-03-04 18:56:00,
2013-03-04 13:02:00,80.2,43.2,29.80,SW,228,8.0,27.0,27,0.00,,,0.00,Wunderground v.1.15,2013-03-04 19:02:00,
2013-03-04 13:08:00,80.3,43.3,29.80,SW,229,8.0,27.0,27,0.00,,,0.00,Wunderground v.1.15,2013-03-04 19:08:00,
2013-03-04 13:14:00,80.3,43.3,29.79,South,172,9.0,27.0,27,0.00,,,0.00,Wunderground v.1.15,2013-03-04 19:14:00,
2013-03-04 13:20:00,81.7,44.5,29.79,South,184,7.0,27.0,27,0.00,,,0.00,Wunderground v.1.15,2013-03-04 19:20:00,
2013-03-04 13:26:00,81.9,41.6,29.78,SSW,212,7.0,27.0,24,0.00,,,0.00,Wunderground v.1.15,2013-03-04 19:26:00,
2013-03-04 13:32:00,82.8,43.4,29.78,SE,134,7.0,27.0,25,0.00,,,0.00,Wunderground v.1.15,2013-03-04 19:32:00,
2013-03-04 13:38:00,82.6,41.0,29.78,SW,224,8.0,27.0,23,0.00,,,0.00,Wunderground v.1.15,2013-03-04 19:38:00,
2013-03-04 13:44:00,82.9,41.3,29.77,SE,143,7.0,27.0,23,0.00,,,0.00,Wunderground v.1.15,2013-03-04 19:44:00,
2013-03-04 13:50:00,83.2,42.6,29.77,WSW,248,6.0,27.0,24,0.00,,,0.00,Wunderground v.1.15,2013-03-04 19:50:00,
2013-03-04 13:56:00,83.5,39.4,29.76,SSE,159,7.0,27.0,21,0.00,,,0.00,Wunderground v.1.15,2013-03-04 19:56:00,
2013-03-04 14:02:00,83.9,41.0,29.76,SW,215,8.0,27.0,22,0.00,,,0.00,Wunderground v.1.15,2013-03-04 20:02:00,
2013-03-04 14:08:00,84.1,39.9,29.75,SW,221,8.0,27.0,21,0.00,,,0.00,Wunderground v.1.15,2013-03-04 20:08:00,
2013-03-04 14:14:00,84.2,40.0,29.75,SSE,158,9.0,27.0,21,0.00,,,0.00,Wunderground v.1.15,2013-03-04 20:14:00,
2013-03-04 14:20:00,84.3,38.9,29.75,South,173,9.0,27.0,20,0.00,,,0.00,Wunderground v.1.15,2013-03-04 20:20:00,
2013-03-04 14:26:00,84.5,39.0,29.74,SSE,159,10.0,27.0,20,0.00,,,0.00,Wunderground v.1.15,2013-03-04 20:26:00,
2013-03-04 14:32:00,84.9,39.3,29.74,SSW,194,10.0,27.0,20,0.00,,,0.00,Wunderground v.1.15,2013-03-04 20:32:00,
2013-03-04 14:38:00,84.1,41.1,29.74,South,190,10.0,27.0,22,0.00,,,0.00,Wunderground v.1.15,2013-03-04 20:38:00,
2013-03-04 14:44:00,84.7,40.4,29.74,SE,135,10.0,27.0,21,0.00,,,0.00,Wunderground v.1.15,2013-03-04 20:44:00,
2013-03-04 14:50:00,85.5,38.5,29.74,South,189,10.0,27.0,19,0.00,,,0.00,Wunderground v.1.15,2013-03-04 20:50:00,
2013-03-04 14:56:00,85.5,38.5,29.73,SSE,153,9.0,27.0,19,0.00,,,0.00,Wunderground v.1.15,2013-03-04 20:56:00,
2013-03-04 15:02:00,85.8,38.8,29.74,SW,221,9.0,12.0,19,0.00,,,0.00,Wunderground v.1.15,2013-03-04 21:02:00,
2013-03-04 15:08:00,85.7,40.0,29.74,SSW,198,9.0,27.0,20,0.00,,,0.00,Wunderground v.1.15,2013-03-04 21:08:00,
2013-03-04 15:14:00,85.4,41.0,29.73,South,187,10.0,27.0,21,0.00,,,0.00,Wunderground v.1.15,2013-03-04 21:14:00,
2013-03-04 15:20:00,84.3,38.9,29.73,SE,143,11.0,11.0,20,0.00,,,0.00,Wunderground v.1.15,2013-03-04 21:20:00,
2013-03-04 15:26:00,84.5,39.0,29.74,SSW,193,9.0,27.0,20,0.00,,,0.00,Wunderground v.1.15,2013-03-04 21:26:00,
2013-03-04 15:32:00,85.2,40.8,29.74,South,177,8.0,14.0,21,0.00,,,0.00,Wunderground v.1.15,2013-03-04 21:32:00,
2013-03-04 15:38:00,84.9,40.6,29.73,SSE,162,8.0,27.0,21,0.00,,,0.00,Wunderground v.1.15,2013-03-04 21:38:00,
2013-03-04 15:44:00,84.2,38.8,29.74,South,186,10.0,27.0,20,0.00,,,0.00,Wunderground v.1.15,2013-03-04 21:44:00,
2013-03-04 15:50:00,84.1,38.7,29.73,SW,219,8.0,27.0,20,0.00,,,0.00,Wunderground v.1.15,2013-03-04 21:50:00,
2013-03-04 15:56:00,83.7,38.4,29.73,SSW,204,8.0,27.0,20,0.00,,,0.00,Wunderground v.1.15,2013-03-04 21:56:00,
2013-03-04 16:02:00,83.4,38.1,29.73,South,188,8.0,27.0,20,0.00,,,0.00,Wunderground v.1.15,2013-03-04 22:02:00,
2013-03-04 16:08:00,83.4,39.4,29.73,South,170,8.0,27.0,21,0.00,,,0.00,Wunderground v.1.15,2013-03-04 22:08:00,
2013-03-04 16:14:00,83.2,39.2,29.73,SW,214,8.0,27.0,21,0.00,,,0.00,Wunderground v.1.15,2013-03-04 22:14:00,
2013-03-04 16:20:00,83.0,39.0,29.73,SE,144,8.0,8.0,21,0.00,,,0.00,Wunderground v.1.15,2013-03-04 22:20:00,
2013-03-04 16:26:00,82.8,38.9,29.72,SSW,194,8.0,27.0,21,0.00,,,0.00,Wunderground v.1.15,2013-03-04 22:26:00,
2013-03-04 16:32:00,82.6,38.7,29.72,SSW,201,7.0,27.0,21,0.00,,,0.00,Wunderground v.1.15,2013-03-04 22:32:00,
2013-03-04 16:38:00,82.7,40.0,29.72,SSW,206,7.0,27.0,22,0.00,,,0.00,Wunderground v.1.15,2013-03-04 22:38:00,
2013-03-04 16:44:00,83.7,39.6,29.72,SSW,210,8.0,27.0,21,0.00,,,0.00,Wunderground v.1.15,2013-03-04 22:44:00,
2013-03-04 16:50:00,83.6,39.5,29.72,SW,221,9.0,9.0,21,0.00,,,0.00,Wunderground v.1.15,2013-03-04 22:50:00,
2013-03-04 16:56:00,83.1,39.1,29.72,South,172,10.0,27.0,21,0.00,,,0.00,Wunderground v.1.15,2013-03-04 22:56:00,
2013-03-04 17:02:00,83.0,40.2,29.72,South,173,9.0,27.0,22,0.00,,,0.00,Wunderground v.1.15,2013-03-04 23:02:00,
2013-03-04 17:08:00,83.1,39.1,29.72,SSW,204,7.0,27.0,21,0.00,,,0.00,Wunderground v.1.15,2013-03-04 23:08:00,
2013-03-04 17:14:00,82.6,38.7,29.72,South,183,8.0,27.0,21,0.00,,,0.00,Wunderground v.1.15,2013-03-04 23:14:00,
2013-03-04 17:20:00,82.0,38.2,29.72,South,184,7.0,27.0,21,0.00,,,0.00,Wunderground v.1.15,2013-03-04 23:20:00,
2013-03-04 17:26:00,81.4,37.7,29.72,South,176,6.0,27.0,21,0.00,,,0.00,Wunderground v.1.15,2013-03-04 23:26:00,
2013-03-04 17:32:00,81.0,38.6,29.72,SSE,163,6.0,27.0,22,0.00,,,0.00,Wunderground v.1.15,2013-03-04 23:32:00,
2013-03-04 17:38:00,80.7,39.4,29.72,South,176,6.0,27.0,23,0.00,,,0.00,Wunderground v.1.15,2013-03-04 23:38:00,
2013-03-04 17:44:00,80.3,39.1,29.72,South,180,5.0,27.0,23,0.00,,,0.00,Wunderground v.1.15,2013-03-04 23:44:00,
2013-03-04 17:50:00,79.9,38.8,29.72,SSE,165,5.0,27.0,23,0.00,,,0.00,Wunderground v.1.15,2013-03-04 23:50:00,
2013-03-04 17:56:00,79.5,38.4,29.72,SSE,156,5.0,27.0,23,0.00,,,0.00,Wunderground v.1.15,2013-03-04 23:56:00,
2013-03-04 18:02:00,79.3,38.3,29.72,SSE,160,5.0,27.0,23,0.00,,,0.00,Wunderground v.1.15,2013-03-05 00:02:00,
2013-03-04 18:08:00,79.2,38.2,29.72,SSE,150,6.0,27.0,23,0.00,,,0.00,Wunderground v.1.15,2013-03-05 00:08:00,
2013-03-04 18:14:00,78.8,37.9,29.72,South,188,5.0,27.0,23,0.00,,,0.00,Wunderground v.1.15,2013-03-05 00:14:00,
2013-03-04 18:20:00,78.5,38.7,29.72,SE,140,5.0,5.0,24,0.00,,,0.00,Wunderground v.1.15,2013-03-05 00:20:00,
2013-03-04 18:26:00,78.2,39.5,29.72,South,184,5.0,9.0,25,0.00,,,0.00,Wunderground v.1.15,2013-03-05 00:26:00,
2013-03-04 18:32:00,77.7,40.1,29.72,South,186,6.0,27.0,26,0.00,,,0.00,Wunderground v.1.15,2013-03-05 00:32:00,
2013-03-04 18:38:00,77.1,40.5,29.73,SSE,148,5.0,27.0,27,0.00,,,0.00,Wunderground v.1.15,2013-03-05 00:38:00,
2013-03-04 18:44:00,76.8,40.3,29.73,South,177,5.0,27.0,27,0.00,,,0.00,Wunderground v.1.15,2013-03-05 00:44:00,
2013-03-04 18:50:00,76.3,40.8,29.73,South,174,4.0,27.0,28,0.00,,,0.00,Wunderground v.1.15,2013-03-05 00:50:00,
2013-03-04 18:56:00,75.5,40.1,29.73,South,180,4.0,27.0,28,0.00,,,0.00,Wunderground v.1.15,2013-03-05 00:56:00,
2013-03-04 19:02:00,75.0,40.6,29.73,South,174,4.0,27.0,29,0.00,,,0.00,Wunderground v.1.15,2013-03-05 01:02:00,
2013-03-04 19:08:00,74.6,40.2,29.73,South,172,5.0,27.0,29,0.00,,,0.00,Wunderground v.1.15,2013-03-05 01:08:00,
2013-03-04 19:14:00,74.5,40.1,29.73,SSE,167,5.0,27.0,29,0.00,,,0.00,Wunderground v.1.15,2013-03-05 01:14:00,
2013-03-04 19:20:00,74.2,39.9,29.74,South,188,5.0,5.0,29,0.00,,,0.00,Wunderground v.1.15,2013-03-05 01:20:00,
2013-03-04 19:26:00,73.3,40.0,29.74,South,169,5.0,27.0,30,0.00,,,0.00,Wunderground v.1.15,2013-03-05 01:26:00,
2013-03-04 19:32:00,72.6,40.2,29.74,SSE,165,5.0,27.0,31,0.00,,,0.00,Wunderground v.1.15,2013-03-05 01:32:00,
2013-03-04 19:38:00,72.5,40.1,29.74,SSW,203,6.0,27.0,31,0.00,,,0.00,Wunderground v.1.15,2013-03-05 01:38:00,
2013-03-04 19:44:00,72.4,39.2,29.73,SSE,161,6.0,27.0,30,0.00,,,0.00,Wunderground v.1.15,2013-03-05 01:44:00,
2013-03-04 19:50:00,72.4,39.2,29.74,SSW,193,6.0,27.0,30,0.00,,,0.00,Wunderground v.1.15,2013-03-05 01:50:00,
2013-03-04 19:56:00,72.2,39.0,29.74,SSE,167,6.0,27.0,30,0.00,,,0.00,Wunderground v.1.15,2013-03-05 01:56:00,
2013-03-04 20:02:00,72.0,38.9,29.74,South,172,5.0,27.0,30,0.00,,,0.00,Wunderground v.1.15,2013-03-05 02:02:00,
2013-03-04 20:08:00,72.2,39.0,29.75,South,177,5.0,27.0,30,0.00,,,0.00,Wunderground v.1.15,2013-03-05 02:08:00,
2013-03-04 20:14:00,72.2,39.0,29.75,SE,146,5.0,27.0,30,0.00,,,0.00,Wunderground v.1.15,2013-03-05 02:14:00,
2013-03-04 20:20:00,72.2,39.0,29.75,SSW,197,6.0,27.0,30,0.00,,,0.00,Wunderground v.1.15,2013-03-05 02:20:00,
2013-03-04 20:26:00,72.0,38.9,29.75,SSW,193,6.0,27.0,30,0.00,,,0.00,Wunderground v.1.15,2013-03-05 02:26:00,
2013-03-04 20:32:00,72.0,38.9,29.75,South,179,6.0,8.0,30,0.00,,,0.00,Wunderground v.1.15,2013-03-05 02:32:00,
2013-03-04 20:38:00,71.9,38.8,29.75,South,172,7.0,27.0,30,0.00,,,0.00,Wunderground v.1.15,2013-03-05 02:38:00,
2013-03-04 20:44:00,71.9,38.8,29.75,South,169,7.0,27.0,30,0.00,,,0.00,Wunderground v.1.15,2013-03-05 02:44:00,
2013-03-04 20:50:00,71.8,38.7,29.75,SSE,158,7.0,7.0,30,0.00,,,0.00,Wunderground v.1.15,2013-03-05 02:50:00,
2013-03-04 20:56:00,71.9,38.8,29.75,SSW,193,7.0,27.0,30,0.00,,,0.00,Wunderground v.1.15,2013-03-05 02:56:00,
2013-03-04 21:02:00,71.6,39.3,29.75,SSE,166,7.0,27.0,31,0.00,,,0.00,Wunderground v.1.15,2013-03-05 03:02:00,
2013-03-04 21:08:00,71.4,39.2,29.75,SSW,193,6.0,27.0,31,0.00,,,0.00,Wunderground v.1.15,2013-03-05 03:08:00,
2013-03-04 21:14:00,71.0,38.8,29.76,SSE,167,6.0,27.0,31,0.00,,,0.00,Wunderground v.1.15,2013-03-05 03:14:00,
2013-03-04 21:20:00,70.7,39.4,29.76,SSE,148,6.0,27.0,32,0.00,,,0.00,Wunderground v.1.15,2013-03-05 03:20:00,
2013-03-04 21:26:00,70.4,39.1,29.76,SSE,151,6.0,27.0,32,0.00,,,0.00,Wunderground v.1.15,2013-03-05 03:26:00,
2013-03-04 21:32:00,70.0,38.8,29.76,South,173,5.0,27.0,32,0.00,,,0.00,Wunderground v.1.15,2013-03-05 03:32:00,
2013-03-04 21:38:00,69.7,39.3,29.76,SE,145,5.0,27.0,33,0.00,,,0.00,Wunderground v.1.15,2013-03-05 03:38:00,
2013-03-04 21:44:00,69.3,38.9,29.76,SSE,151,5.0,27.0,33,0.00,,,0.00,Wunderground v.1.15,2013-03-05 03:44:00,
2013-03-04 21:50:00,69.1,38.8,29.76,SSE,150,5.0,27.0,33,0.00,,,0.00,Wunderground v.1.15,2013-03-05 03:50:00,
2013-03-04 21:56:00,68.9,39.4,29.76,SSE,148,5.0,27.0,34,0.00,,,0.00,Wunderground v.1.15,2013-03-05 03:56:00,
2013-03-04 22:02:00,68.6,39.1,29.76,SSE,162,5.0,6.0,34,0.00,,,0.00,Wunderground v.1.15,2013-03-05 04:02:00,
2013-03-04 22:08:00,68.3,38.8,29.76,SSE,154,5.0,27.0,34,0.00,,,0.00,Wunderground v.1.15,2013-03-05 04:08:00,
2013-03-04 22:14:00,68.4,38.9,29.76,South,173,6.0,27.0,34,0.00,,,0.00,Wunderground v.1.15,2013-03-05 04:14:00,
2013-03-04 22:20:00,68.6,38.3,29.76,SSE,159,6.0,6.0,33,0.00,,,0.00,Wunderground v.1.15,2013-03-05 04:20:00,
2013-03-04 22:26:00,68.5,38.2,29.76,SSE,167,6.0,27.0,33,0.00,,,0.00,Wunderground v.1.15,2013-03-05 04:26:00,
2013-03-04 22:32:00,68.6,37.5,29.77,South,173,6.0,27.0,32,0.00,,,0.00,Wunderground v.1.15,2013-03-05 04:32:00,
2013-03-04 22:38:00,68.8,37.7,29.76,SSE,153,6.0,27.0,32,0.00,,,0.00,Wunderground v.1.15,2013-03-05 04:38:00,
2013-03-04 22:44:00,69.4,37.4,29.76,SSE,158,6.0,27.0,31,0.00,,,0.00,Wunderground v.1.15,2013-03-05 04:44:00,
2013-03-04 22:50:00,70.5,37.6,29.76,South,186,8.0,27.0,30,0.00,,,0.00,Wunderground v.1.15,2013-03-05 04:50:00,
2013-03-04 22:56:00,71.1,38.1,29.76,SSE,152,10.0,27.0,30,0.00,,,0.00,Wunderground v.1.15,2013-03-05 04:56:00,
2013-03-04 23:00:00,71.1,38.1,29.76,SSE,160,10.0,27.0,30,0.00,,,0.00,Wunderground v.1.15,2013-03-05 05:00:00,
2013-03-04 23:02:00,70.9,38.7,29.76,SE,143,10.0,27.0,31,0.00,,,0.00,Wunderground v.1.15,2013-03-05 05:02:00,
2013-03-04 23:08:00,70.3,39.0,29.76,SSE,148,9.0,27.0,32,0.00,,,0.00,Wunderground v.1.15,2013-03-05 05:08:00,
2013-03-04 23:10:00,70.0,38.8,29.76,SSW,194,8.0,8.0,32,0.00,,,0.00,Wunderground v.1.15,2013-03-05 05:10:00,
2013-03-04 23:14:00,69.6,40.0,29.76,SSE,165,8.0,27.0,34,0.00,,,0.00,Wunderground v.1.15,2013-03-05 05:14:00,
2013-03-04 23:20:00,68.8,41.5,29.76,South,186,7.0,27.0,37,0.00,,,0.00,Wunderground v.1.15,2013-03-05 05:20:00,
2013-03-04 23:26:00,68.3,42.4,29.76,SSE,148,9.0,27.0,39,0.00,,,0.00,Wunderground v.1.15,2013-03-05 05:26:00,
2013-03-04 23:32:00,67.7,42.5,29.76,South,181,9.0,11.0,40,0.00,,,0.00,Wunderground v.1.15,2013-03-05 05:32:00,
2013-03-04 23:38:00,67.3,44.0,29.76,SSE,165,9.0,27.0,43,0.00,,,0.00,Wunderground v.1.15,2013-03-05 05:38:00,
2013-03-04 23:44:00,67.7,45.6,29.76,SSE,159,11.0,27.0,45,0.00,,,0.00,Wunderground v.1.15,2013-03-05 05:44:00,
2013-03-04 23:50:00,67.7,46.7,29.76,SSE,167,11.0,11.0,47,0.00,,,0.00,Wunderground v.1.15,2013-03-05 05:50:00,
2013-03-04 23:56:00,67.5,48.7,29.76,SSE,151,12.0,27.0,51,0.00,,,0.00,Wunderground v.1.15,2013-03-05 05:56:00,